Observations for Trim Market St
| Time | AQI | Temp °C | Hum % | Pres Pa | CO μg/m³ | H₂S μg/m³ | NO μg/m³ | NO₂ μg/m³ | O₃ μg/m³ | SO₂ μg/m³ | PM1 μg/m³ | PM2.5 μg/m³ | PM10 μg/m³ |
|---|---|---|---|---|---|---|---|---|---|---|---|---|---|
| Monday 13 July 2026 | |||||||||||||
| 21:45 | 1 | 20.9 | 50 | 59,334 | 0 | 0 | 0 | 6.98 | 32.95 | 0 | 0.71 | 3.5 | 3.79 |
| 21:44 | 1 | 20.9 | 50 | 59,723 | 0 | 0 | 0 | 7.39 | 32.43 | 0 | 1.43 | 4.02 | 4.53 |
| 21:42 | 1 | 21 | 49 | 60,072 | 0 | 0 | 0 | 6.8 | 31.91 | 0 | 0 | 3 | 4.53 |
| 21:39 | 1 | 21.1 | 49 | 60,922 | 0 | 0 | 0.14 | 9.93 | 28.51 | 0 | 0.71 | 3.03 | 4.51 |
| 21:38 | 1 | 21.1 | 49 | 61,159 | 0 | 0 | 0 | 7.53 | 32.46 | 0 | 0.71 | 2.51 | 4.51 |
| 21:36 | 1 | 21.2 | 48 | 61,496 | 0 | 0 | 0 | 7.04 | 29.34 | 0 | 0.71 | 3.56 | 3.75 |
| 21:27 | 1 | 21.5 | 48 | 62,705 | 0 | 0 | 0 | 5.25 | 30.11 | 0 | 1.43 | 4.11 | 4.49 |
| 21:26 | 1 | 21.5 | 48 | 62,766 | 0 | 0 | 0 | 4.95 | 34.47 | 0 | 1.43 | 3.59 | 4.49 |
| 21:25 | 1 | 21.5 | 48 | 62,875 | 0 | 0 | 0 | 5.16 | 32.29 | 0 | 0.71 | 3.6 | 4.49 |
| 21:24 | 1 | 21.6 | 47 | 62,958 | 0 | 0 | 0 | 5.44 | 32.68 | 0 | 0.71 | 3.6 | 3.72 |
| 21:23 | 1 | 21.6 | 47 | 63,025 | 0 | 0 | 0 | 4.55 | 31.43 | 0 | 0 | 2.57 | 2.83 |
| 21:22 | 1 | 21.6 | 47 | 63,076 | 0 | 0 | 0 | 6.46 | 27.52 | 0 | 3.56 | 6.2 | 7.53 |
| 21:21 | 1 | 21.7 | 47 | 63,143 | 0 | 0 | 0 | 8.84 | 27.24 | 0 | 7.84 | 9.31 | 12.1 |
| 21:20 | 1 | 21.7 | 47 | 63,167 | 0 | 0 | 0 | 5.24 | 30.22 | 0 | 2.14 | 4.13 | 4.48 |
| 21:19 | 1 | 21.7 | 47 | 63,193 | 0 | 0 | 0 | 6.85 | 28.64 | 0 | 1.43 | 3.61 | 5.24 |
| 21:18 | 1 | 21.8 | 47 | 63,221 | 0 | 0 | 0 | 5.22 | 27.59 | 0 | 1.43 | 3.1 | 4.48 |
| 21:17 | 1 | 21.8 | 47 | 63,262 | 0 | 0 | 0 | 8.02 | 29.1 | 0 | 0.71 | 4.65 | 5.24 |
| 21:16 | 1 | 21.9 | 47 | 63,309 | 0 | 0 | 0 | 6.81 | 29.57 | 0 | 2.14 | 4.66 | 6.76 |
| 21:15 | 1 | 21.9 | 47 | 63,341 | 0 | 0 | 0 | 6.31 | 28.41 | 0 | 1.43 | 4.14 | 5.24 |
| 21:14 | 1 | 21.9 | 47 | 63,349 | 0 | 0 | 0 | 6.62 | 27.92 | 0 | 1.43 | 4.14 | 4.47 |